Weather History for Bennington, VT

Change the Weather History Date:

Thursday, May 15, 2014

  Actual Average Record
Temperature  
Mean Temperature 69 °F 55 °F  
Max Temperature 74 °F 67 °F 82 °F (2004)
Min Temperature 64 °F 43 °F 28 °F (2013)
Degree Days  
Heating Degree Days 0 10  
Month to date heating degree days 125 184  
Since 1 July heating degree days 7118 7007  
Cooling Degree Days 4 0  
Month to date cooling degree days 9 0  
Year to date cooling degree days 13 3  
Growing Degree Days 18 (Base 50)    
Moisture  
Dew Point 60 °F    
Average Humidity 74    
Maximum Humidity 81    
Minimum Humidity 66    
Precipitation  
Precipitation T in 0.12 in 0.73 in (2011)
Month to date precipitation 0.49 1.56  
Year to date precipitation 10.96 12.97  
Sea Level Pressure  
Sea Level Pressure 30.15 in    
Wind  
Wind Speed 11 mph (SSE)    
Max Wind Speed 21 mph    
Max Gust Speed 30 mph    
Visibility 10 miles    
Events Rain    
T = Trace of Precipitation, MM = Missing Value Source: NWS Daily Summary

Daily Weather History Graph

Daily Weather History Graph

Search for Another Location

Airport:

Trip Planner

Search our weather history database for the weather conditions in past years. The results will help you decide how hot, cold, wet, or windy it might be!

Date:

Astronomy

May. 15, 2014 Rise Set
Actual Time 5:30 AM EDT 8:09 PM EDT
Civil Twilight 4:57 AM EDT 8:41 PM EDT
Nautical Twilight 4:16 AM EDT 9:22 PM EDT
Astronomical Twilight 3:30 AM EDT 10:09 PM EDT
Moon 9:14 PM EDT (5/15) 6:15 AM EDT (5/15)
Length of Visible Light 15h 44m
Length of Day
14h 39m
Full, 99% of the Moon is Illuminated
May 15
Full
May 21
Last Quarter
May 28
New
Jun 5
First Quarter
Jun 13
Full

Hourly Weather History & Observations

Time (EDT) Temp. Dew Point Humidity Pressure Visibility Wind Dir Wind Speed Gust Speed Precip Events Conditions
12:40 AM 64.0 °F 55.9 °F 75% 30.23 in 10.0 mi Variable 5.8 mph - N/A   Mostly Cloudy
12:54 AM 64.0 °F 55.9 °F 75% 30.22 in 10.0 mi SSE 6.9 mph - N/A   Overcast
1:54 AM 64.0 °F 55.9 °F 75% 30.22 in 10.0 mi SE 8.1 mph - N/A   Overcast
2:54 AM 64.9 °F 57.0 °F 75% 30.20 in 10.0 mi SE 5.8 mph - N/A   Overcast
3:54 AM 64.9 °F 57.0 °F 75% 30.19 in 10.0 mi ESE 11.5 mph - N/A   Overcast
4:54 AM 64.9 °F 57.0 °F 75% 30.18 in 10.0 mi East 8.1 mph - N/A   Overcast
5:54 AM 64.9 °F 57.9 °F 78% 30.19 in 10.0 mi East 4.6 mph - N/A   Overcast
6:54 AM 64.9 °F 57.9 °F 78% 30.18 in 10.0 mi East 5.8 mph - N/A   Overcast
7:54 AM 66.9 °F 60.1 °F 79% 30.18 in 10.0 mi Variable 5.8 mph - N/A   Overcast
8:54 AM 68.0 °F 60.1 °F 76% 30.19 in 10.0 mi Variable 6.9 mph - N/A   Overcast
9:54 AM 70.0 °F 61.0 °F 73% 30.18 in 10.0 mi South 9.2 mph - N/A   Overcast
10:54 AM 72.0 °F 62.1 °F 71% 30.17 in 10.0 mi SSE 12.7 mph 23.0 mph N/A   Overcast
11:17 AM 71.1 °F 61.0 °F 70% 30.18 in 10.0 mi SE 12.7 mph 19.6 mph N/A   Overcast
11:54 AM 73.0 °F 62.1 °F 68% 30.17 in 10.0 mi SSE 15.0 mph 24.2 mph N/A   Mostly Cloudy
12:04 PM 73.0 °F 62.1 °F 68% 30.18 in 10.0 mi SSE 12.7 mph 23.0 mph N/A   Mostly Cloudy
12:54 PM 72.0 °F 62.1 °F 71% 30.16 in 10.0 mi South 13.8 mph 26.5 mph N/A   Overcast
1:54 PM 71.1 °F 62.1 °F 73% 30.16 in 10.0 mi SSE 15.0 mph 21.9 mph N/A   Overcast
3:54 PM 73.0 °F 62.1 °F 68% 30.12 in 10.0 mi SSE 16.1 mph - N/A   Overcast
4:03 PM 73.0 °F 62.1 °F 68% 30.13 in 10.0 mi SSE 20.7 mph 26.5 mph N/A   Overcast
4:54 PM 72.0 °F 62.1 °F 71% 30.11 in 10.0 mi SSE 13.8 mph 21.9 mph N/A   Mostly Cloudy
5:54 PM 71.1 °F 62.1 °F 73% 30.11 in 10.0 mi South 13.8 mph - 0.00 in   Overcast
6:17 PM 70.0 °F 63.0 °F 78% 30.12 in 9.0 mi South 8.1 mph - 0.00 in Rain Light Rain
6:54 PM 71.1 °F 61.0 °F 70% 30.11 in 10.0 mi SSE 13.8 mph 20.7 mph 0.00 in   Overcast
7:54 PM 71.1 °F 59.0 °F 66% 30.12 in 10.0 mi SSE 13.8 mph 19.6 mph N/A   Overcast
8:54 PM 70.0 °F 60.1 °F 71% 30.12 in 10.0 mi SE 13.8 mph 26.5 mph N/A   Mostly Cloudy
9:54 PM 70.0 °F 60.1 °F 71% 30.12 in 10.0 mi SSE 15.0 mph 20.7 mph N/A   Overcast
10:34 PM 69.1 °F 60.1 °F 73% 30.11 in 10.0 mi SSE 11.5 mph - N/A   Mostly Cloudy
10:54 PM 69.1 °F 61.0 °F 75% 30.10 in 10.0 mi SE 15.0 mph - N/A   Mostly Cloudy
11:28 PM 70.0 °F 60.1 °F 71% 30.11 in 10.0 mi SSE 9.2 mph - N/A   Overcast
11:54 PM 70.0 °F 60.1 °F 71% 30.08 in 10.0 mi SSE 13.8 mph 25.3 mph N/A   Overcast